2023/01/04 00:00:00,12.9, 0.3
2023/01/04 00:10:00,12.9, 0.5
2023/01/04 00:20:00,12.9, 0.4
2023/01/04 00:30:00,13.0, 0.6
2023/01/04 00:40:00,12.9, 0.6
2023/01/04 00:50:00,12.9, 0.5
2023/01/04 01:00:00,12.9, 0.6
2023/01/04 01:10:00,12.9, 0.6
2023/01/04 01:20:00,12.9, 0.7
2023/01/04 01:30:00,12.9, 0.8
2023/01/04 01:40:00,12.9, 0.9
2023/01/04 01:50:00,12.9, 0.9
2023/01/04 02:00:00,12.9, 0.9
2023/01/04 02:10:00,12.9, 0.8
2023/01/04 02:20:00,12.9, 0.9
2023/01/04 02:30:00,12.9, 0.8
2023/01/04 02:40:00,12.9, 0.9
2023/01/04 02:50:00,12.9, 1.0
2023/01/04 03:00:00,12.9, 1.0
2023/01/04 03:10:00,12.9, 1.0
2023/01/04 03:20:00,12.9, 1.0
2023/01/04 03:30:00,12.9, 0.8
2023/01/04 03:40:00,12.9, 0.8
2023/01/04 03:50:00,12.9, 0.6
2023/01/04 04:00:00,12.9, 0.5
2023/01/04 04:10:00,12.9, 0.3
2023/01/04 04:20:00,12.9, 0.3
2023/01/04 04:30:00,12.9, 0.3
2023/01/04 04:40:00,12.9, 0.6
2023/01/04 04:50:00,12.9, 0.8
2023/01/04 05:00:00,12.8, 0.8
2023/01/04 05:10:00,12.8, 0.6
2023/01/04 05:20:00,12.8, 0.4
2023/01/04 05:30:00,12.8, 0.6
2023/01/04 05:40:00,12.8, 0.7
2023/01/04 05:50:00,12.8, 0.6
2023/01/04 06:00:00,12.9, 0.4
2023/01/04 06:10:00,12.8, 0.5
2023/01/04 06:20:00,12.8, 0.3
2023/01/04 06:30:00,12.8, 0.3
2023/01/04 06:40:00,12.9, 0.3
2023/01/04 06:50:00,12.9, 0.4
2023/01/04 07:00:00,12.9, 0.3
2023/01/04 07:10:00,12.9, 0.2
2023/01/04 07:20:00,12.8, 0.0
2023/01/04 07:30:00,12.8, 0.0
2023/01/04 07:40:00,12.9, 0.4
2023/01/04 07:50:00,12.9, 0.6
2023/01/04 08:00:00,12.8, 0.7
2023/01/04 08:10:00,12.9, 0.9
2023/01/04 08:20:00,13.5, 0.8
2023/01/04 08:30:00,14.4, 1.1
2023/01/04 08:40:00,14.4, 1.1
2023/01/04 08:50:00,14.6, 1.3
2023/01/04 09:00:00,14.6, 1.2
2023/01/04 09:10:00,14.5, 1.3
2023/01/04 09:20:00,14.4, 1.3
2023/01/04 09:30:00,14.4, 1.2
2023/01/04 09:40:00,14.3, 1.4
2023/01/04 09:50:00,14.2, 1.5
2023/01/04 10:00:00,14.2, 1.8
2023/01/04 10:10:00,14.3, 1.7
2023/01/04 10:20:00,14.3, 1.8
2023/01/04 10:30:00,14.2, 1.8
2023/01/04 10:40:00,14.2, 2.3
2023/01/04 10:50:00,14.1, 3.2
2023/01/04 11:00:00,14.0, 2.9
2023/01/04 11:10:00,14.0, 2.8
2023/01/04 11:20:00,13.9, 2.6
2023/01/04 11:30:00,13.8, 2.2
2023/01/04 11:40:00,13.8, 2.1
2023/01/04 11:50:00,13.7, 1.9
2023/01/04 12:00:00,13.6, 1.7
2023/01/04 12:10:00,13.5, 1.8
2023/01/04 12:20:00,14.3, 1.7
2023/01/04 12:30:00,14.6, 1.7
2023/01/04 12:40:00,14.8, 1.9
2023/01/04 12:50:00,14.7, 2.3
2023/01/04 13:00:00,14.6, 1.8
2023/01/04 13:10:00,14.5, 1.7
2023/01/04 13:20:00,14.7, 1.7
2023/01/04 13:30:00,15.0, 1.8
2023/01/04 13:40:00,15.0, 2.1
2023/01/04 13:50:00,14.9, 2.1
2023/01/04 14:00:00,14.8, 2.4
2023/01/04 14:10:00,14.7, 2.1
2023/01/04 14:20:00,14.7, 2.3
2023/01/04 14:30:00,14.6, 2.1
2023/01/04 14:40:00,14.5, 2.5
2023/01/04 14:50:00,14.4, 2.6
2023/01/04 15:00:00,14.4, 2.7
2023/01/04 15:10:00,14.3, 2.5
2023/01/04 15:20:00,14.4, 2.3
2023/01/04 15:30:00,14.3, 2.1
2023/01/04 15:40:00,14.3, 2.1
2023/01/04 15:50:00,14.3, 2.0
2023/01/04 16:00:00,14.3, 1.9
2023/01/04 16:10:00,14.2, 1.8
2023/01/04 16:20:00,14.4, 1.6
2023/01/04 16:30:00,14.6, 1.6
2023/01/04 16:40:00,14.5, 1.5
2023/01/04 16:50:00,14.8, 1.3
2023/01/04 17:00:00,15.3, 1.2
2023/01/04 17:10:00,15.2, 1.2
2023/01/04 17:20:00,15.4, 1.2
2023/01/04 17:30:00,16.3, 1.1
2023/01/04 17:40:00,16.6, 1.3
2023/01/04 17:50:00,16.9, 1.1
2023/01/04 18:00:00,17.4, 1.2
2023/01/04 18:10:00,17.7, 1.1
2023/01/04 18:20:00,18.1, 1.0
2023/01/04 18:30:00,18.3, 1.0
2023/01/04 18:40:00,18.2, 1.1
2023/01/04 18:50:00,18.1, 1.0
2023/01/04 19:00:00,18.1, 1.0
2023/01/04 19:10:00,18.4, 1.1
2023/01/04 19:20:00,18.9, 1.1
2023/01/04 19:30:00,18.8, 1.0
2023/01/04 19:40:00,18.9, 1.0
2023/01/04 19:50:00,19.4, 1.1
2023/01/04 20:00:00,19.6, 1.2
2023/01/04 20:10:00,19.6, 1.1
2023/01/04 20:20:00,19.7, 1.1
2023/01/04 20:30:00,20.0, 1.0
2023/01/04 20:40:00,20.8, 1.0
2023/01/04 20:50:00,21.1, 1.0
2023/01/04 21:00:00,21.1, 1.0
2023/01/04 21:10:00,21.1, 1.0
2023/01/04 21:20:00,21.7, 1.0
2023/01/04 21:30:00,21.6, 0.9
2023/01/04 21:40:00,21.8, 1.0
2023/01/04 21:50:00,22.4, 0.9
2023/01/04 22:00:00,23.5, 1.0
2023/01/04 22:10:00,24.2, 0.9
2023/01/04 22:20:00,24.6, 1.0
2023/01/04 22:30:00,24.5, 1.0
2023/01/04 22:40:00,24.5, 1.1
2023/01/04 22:50:00,24.4, 1.2
2023/01/04 23:00:00,24.3, 0.9
2023/01/04 23:10:00,24.2, 1.1
2023/01/04 23:20:00,24.1, 0.9
2023/01/04 23:30:00,24.0, 0.9
2023/01/04 23:40:00,24.0, 0.9
2023/01/04 23:50:00,23.9, 1.0
